sat.trackr.live / text

‹ back to catalog

FLOCK 4H-26

NORAD 66729 · 2025-276BR

PAYLOAD ACTIVE UNKNOWN

§ Identity

Operator
Country
US
Launch date
2025-11-28
Launch site
AFWTR
Launch vehicle
Mass (kg)
RCS (m²)

Purposes: earth_obs

External: N2YO · Heavens-Above · Gunter

§ Orbital elements

Epoch: 2026-05-25T03:04:06.392064Z

Period
94.78 min
Inclination
97.4195°
Eccentricity
0.0006551
Mean motion
15.19284849 rev/d
Perigee alt
503.5 km
Apogee alt
512.5 km
Semi-major
6,886.1 km
B*
2.6633e-4
RAAN
218.9507°
Arg perigee
93.2719°
Mean anomaly
266.9265°
Rev number
2,691

§ Raw data

FLOCK 4H-261 66729U 25276BR  26145.12785176  .00005554  00000+0  26633-3 0  99982 66729  97.4195 218.9507 0006551  93.2719 266.9265 15.19284849 26912

JSON: /api/v1/satellites/66729 · /tle

For live sub-satellite position, see the globe view (requires WebGL).

§ Visibility from observer

Set your observer location to see the next 7 days of passes ≥ 10°. The values pass through the URL so the page stays shareable.

No JS? Fill the form by hand. The geolocation button needs JavaScript.